| time (UTC) | temp C | wind direction | speed KPH | gust KPH | rain 1hr cm | rain 24hr cm | rain mn cm | humidity % | barometer mb |
| 20260504204900 | 22 | 142 | 1.6 | 11.3 | 0.00 | 0.00 | 0.00 | 50 | 1006.3 |
| 20260504204759 | 22 | 259 | 3.2 | 11.3 | 0.00 | 0.00 | 0.00 | 51 | 1006.3 |
| 20260504204700 | 22 | 257 | 1.6 | 16.1 | 0.00 | 0.00 | 0.00 | 50 | 1006.4 |
| 20260504204559 | 22 | 273 | 6.4 | 19.3 | 0.00 | 0.00 | 0.00 | 48 | 1006.4 |
| 20260504204501 | 22 | 252 | 6.4 | 19.3 | 0.00 | 0.00 | 0.00 | 48 | 1006.4 |
| 20260504204300 | 22 | 296 | 3.2 | 19.3 | 0.00 | 0.00 | 0.00 | 49 | 1006.5 |
| 20260504204058 | 22 | 235 | 6.4 | 19.3 | 0.00 | 0.00 | 0.00 | 49 | 1006.5 |
| 20260504204005 | 22 | 205 | 6.4 | 19.3 | 0.00 | 0.00 | 0.00 | 47 | 1006.5 |
| 20260504203859 | 22 | 221 | 0.0 | 19.3 | 0.00 | 0.00 | 0.00 | 48 | 1006.5 |
| 20260504203758 | 22 | 193 | 4.8 | 19.3 | 0.00 | 0.00 | 0.00 | 50 | 1006.4 |
| 20260504203559 | 22 | 223 | 8.0 | 14.5 | 0.00 | 0.00 | 0.00 | 51 | 1006.4 |
| 20260504203504 | 22 | 331 | 3.2 | 14.5 | 0.00 | 0.00 | 0.00 | 49 | 1006.4 |
| 20260504203401 | 22 | 190 | 3.2 | 14.5 | 0.00 | 0.00 | 0.00 | 48 | 1006.5 |
| 20260504203300 | 22 | 211 | 3.2 | 14.5 | 0.00 | 0.00 | 0.00 | 48 | 1006.4 |
| 20260504203200 | 22 | 211 | 0.0 | 14.5 | 0.00 | 0.00 | 0.00 | 49 | 1006.4 |
| 20260504203004 | 22 | 186 | 4.8 | 14.5 | 0.00 | 0.00 | 0.00 | 49 | 1006.7 |
| 20260504202859 | 22 | 239 | 8.0 | 19.3 | 0.00 | 0.00 | 0.00 | 49 | 1006.6 |
| 20260504202759 | 22 | 199 | 8.0 | 19.3 | 0.00 | 0.00 | 0.00 | 49 | 1006.6 |
| 20260504202700 | 22 | 198 | 3.2 | 19.3 | 0.00 | 0.00 | 0.00 | 51 | 1006.6 |
| 20260504202502 | 22 | 201 | 1.6 | 19.3 | 0.00 | 0.00 | 0.00 | 50 | 1006.7 |
| 20260504202400 | 22 | 213 | 4.8 | 19.3 | 0.00 | 0.00 | 0.00 | 48 | 1006.7 |
| 20260504202300 | 22 | 173 | 4.8 | 19.3 | 0.00 | 0.00 | 0.00 | 48 | 1006.7 |
| 20260504202159 | 22 | 190 | 4.8 | 19.3 | 0.00 | 0.00 | 0.00 | 48 | 1006.7 |
| 20260504202059 | 22 | 148 | 12.9 | 19.3 | 0.00 | 0.00 | 0.00 | 49 | 1006.7 |
| 20260504202005 | 22 | 200 | 3.2 | 19.3 | 0.00 | 0.00 | 0.00 | 49 | 1006.7 |
| 20260504201859 | 22 | 105 | 6.4 | 14.5 | 0.00 | 0.00 | 0.00 | 49 | 1006.7 |
| 20260504201759 | 22 | 145 | 3.2 | 14.5 | 0.00 | 0.00 | 0.00 | 48 | 1006.7 |
| 20260504201659 | 22 | 146 | 4.8 | 14.5 | 0.00 | 0.00 | 0.00 | 48 | 1006.7 |
| 20260504201600 | 22 | 105 | 14.5 | 14.5 | 0.00 | 0.00 | 0.00 | 48 | 1006.9 |
| 20260504201503 | 22 | 278 | 4.8 | 14.5 | 0.00 | 0.00 | 0.00 | 47 | 1006.8 |
| 20260504201259 | 22 | 149 | 12.9 | 16.1 | 0.00 | 0.00 | 0.00 | 49 | 1006.8 |
| 20260504201159 | 22 | 243 | 6.4 | 16.1 | 0.00 | 0.00 | 0.00 | 48 | 1006.9 |
| 20260504201059 | 22 | 157 | 3.2 | 16.1 | 0.00 | 0.00 | 0.00 | 50 | 1006.9 |
| 20260504201005 | 22 | 157 | 1.6 | 16.1 | 0.00 | 0.00 | 0.00 | 49 | 1006.9 |
| 20260504200859 | 22 | 142 | 6.4 | 16.1 | 0.00 | 0.00 | 0.00 | 48 | 1006.9 |
| 20260504200800 | 22 | 184 | 6.4 | 16.1 | 0.00 | 0.00 | 0.00 | 49 | 1006.8 |
| 20260504200701 | 22 | 142 | 8.0 | 16.1 | 0.00 | 0.00 | 0.00 | 48 | 1006.8 |
| 20260504200559 | 22 | 144 | 9.7 | 16.1 | 0.00 | 0.00 | 0.00 | 48 | 1006.8 |
| 20260504200504 | 22 | 151 | 1.6 | 16.1 | 0.00 | 0.00 | 0.00 | 49 | 1006.9 |
| 20260504200401 | 22 | 153 | 4.8 | 14.5 | 0.00 | 0.00 | 0.00 | 50 | 1006.9 |
| 20260504200300 | 22 | 98 | 0.0 | 17.7 | 0.00 | 0.00 | 0.00 | 50 | 1006.9 |
| 20260504200159 | 22 | 98 | 1.6 | 17.7 | 0.00 | 0.00 | 0.00 | 50 | 1006.9 |
| 20260504200059 | 22 | 98 | 1.6 | 17.7 | 0.00 | 0.00 | 0.00 | 48 | 1006.9 |
| 20260504200000 | 22 | 203 | 6.4 | 17.7 | 0.00 | 0.00 | 0.00 | 49 | 1007.0 |
| 20260504195858 | 22 | 200 | 4.8 | 17.7 | 0.00 | 0.00 | 0.00 | 50 | 1007.0 |
| 20260504195758 | 22 | 199 | 1.6 | 17.7 | 0.00 | 0.00 | 0.00 | 53 | 1007.0 |
| 20260504195659 | 22 | 200 | 1.6 | 17.7 | 0.00 | 0.00 | 0.00 | 48 | 1007.0 |
| 20260504195558 | 22 | 155 | 6.4 | 17.7 | 0.00 | 0.00 | 0.00 | 49 | 1007.0 |
| 20260504195501 | 22 | 288 | 11.3 | 17.7 | 0.00 | 0.00 | 0.00 | 49 | 1007.0 |
| 20260504195359 | 22 | 264 | 4.8 | 17.7 | 0.00 | 0.00 | 0.00 | 51 | 1007.0 |
| 20260504195300 | 22 | 183 | 11.3 | 17.7 | 0.00 | 0.00 | 0.00 | 48 | 1007.1 |
| 20260504195159 | 22 | 187 | 12.9 | 14.5 | 0.00 | 0.00 | 0.00 | 48 | 1007.2 |
| 20260504195100 | 22 | 195 | 8.0 | 14.5 | 0.00 | 0.00 | 0.00 | 48 | 1007.2 |
| 20260504194959 | 22 | 257 | 8.0 | 14.5 | 0.00 | 0.00 | 0.00 | 49 | 1007.2 |
| 20260504194858 | 22 | 144 | 14.5 | 14.5 | 0.00 | 0.00 | 0.00 | 49 | 1007.3 |
| 20260504194759 | 22 | 202 | 4.8 | 11.3 | 0.00 | 0.00 | 0.00 | 49 | 1007.2 |
| 20260504194659 | 22 | 298 | 6.4 | 14.5 | 0.00 | 0.00 | 0.00 | 49 | 1007.2 |
| 20260504194559 | 22 | 296 | 8.0 | 14.5 | 0.00 | 0.00 | 0.00 | 52 | 1007.3 |
| 20260504194500 | 22 | 281 | 4.8 | 14.5 | 0.00 | 0.00 | 0.00 | 49 | 1007.2 |
| 20260504194400 | 22 | 133 | 6.4 | 14.5 | 0.00 | 0.00 | 0.00 | 49 | 1007.3 |
| 20260504194259 | 22 | 176 | 6.4 | 14.5 | 0.00 | 0.00 | 0.00 | 49 | 1007.3 |
| 20260504194158 | 21 | 113 | 3.2 | 14.5 | 0.00 | 0.00 | 0.00 | 49 | 1007.3 |
| 20260504194059 | 21 | 201 | 3.2 | 14.5 | 0.00 | 0.00 | 0.00 | 50 | 1007.3 |
| 20260504193859 | 21 | 159 | 8.0 | 14.5 | 0.00 | 0.00 | 0.00 | 51 | 1007.3 |
| 20260504193658 | 21 | 170 | 9.7 | 16.1 | 0.00 | 0.00 | 0.00 | 50 | 1007.4 |
| 20260504193559 | 21 | 261 | 3.2 | 16.1 | 0.00 | 0.00 | 0.00 | 51 | 1007.5 |
| 20260504193500 | 21 | 267 | 3.2 | 16.1 | 0.00 | 0.00 | 0.00 | 52 | 1007.5 |
| 20260504193358 | 21 | 262 | 3.2 | 16.1 | 0.00 | 0.00 | 0.00 | 50 | 1007.5 |
| 20260504193257 | 21 | 195 | 4.8 | 16.1 | 0.00 | 0.00 | 0.00 | 51 | 1007.5 |
| 20260504193159 | 21 | 195 | 3.2 | 16.1 | 0.00 | 0.00 | 0.00 | 49 | 1007.5 |
| 20260504193058 | 21 | 309 | 1.6 | 16.1 | 0.00 | 0.00 | 0.00 | 50 | 1007.5 |
| 20260504192959 | 21 | 139 | 1.6 | 16.1 | 0.00 | 0.00 | 0.00 | 51 | 1007.5 |
| 20260504192857 | 21 | 296 | 6.4 | 16.1 | 0.00 | 0.00 | 0.00 | 49 | 1007.5 |
| 20260504192758 | 21 | 183 | 12.9 | 16.1 | 0.00 | 0.00 | 0.00 | 50 | 1007.5 |
| 20260504192658 | 21 | 183 | 3.2 | 12.9 | 0.00 | 0.00 | 0.00 | 51 | 1007.4 |
| 20260504192502 | 21 | 183 | 3.2 | 12.9 | 0.00 | 0.00 | 0.00 | 49 | 1007.5 |
| 20260504192300 | 21 | 187 | 4.8 | 12.9 | 0.00 | 0.00 | 0.00 | 50 | 1007.6 |
| 20260504192158 | 21 | 228 | 1.6 | 12.9 | 0.00 | 0.00 | 0.00 | 51 | 1007.6 |
| 20260504192058 | 21 | 113 | 3.2 | 12.9 | 0.00 | 0.00 | 0.00 | 50 | 1007.6 |
| 20260504191859 | 21 | 301 | 4.8 | 12.9 | 0.00 | 0.00 | 0.00 | 49 | 1007.6 |
| 20260504191759 | 21 | 182 | 8.0 | 12.9 | 0.00 | 0.00 | 0.00 | 49 | 1007.6 |
| 20260504191700 | 21 | 175 | 4.8 | 12.9 | 0.00 | 0.00 | 0.00 | 51 | 1007.7 |
| 20260504191558 | 21 | 234 | 1.6 | 11.3 | 0.00 | 0.00 | 0.00 | 50 | 1007.8 |
| 20260504191459 | 21 | 227 | 3.2 | 11.3 | 0.00 | 0.00 | 0.00 | 53 | 1007.8 |
| 20260504191357 | 21 | 265 | 1.6 | 11.3 | 0.00 | 0.00 | 0.00 | 49 | 1007.8 |
| 20260504191259 | 21 | 265 | 3.2 | 11.3 | 0.00 | 0.00 | 0.00 | 51 | 1007.8 |
| 20260504191158 | 21 | 265 | 1.6 | 11.3 | 0.00 | 0.00 | 0.00 | 50 | 1007.8 |
| 20260504190858 | 21 | 234 | 3.2 | 11.3 | 0.00 | 0.00 | 0.00 | 50 | 1007.8 |
| 20260504190758 | 21 | 150 | 4.8 | 11.3 | 0.00 | 0.00 | 0.00 | 52 | 1007.8 |
| 20260504190558 | 21 | 226 | 3.2 | 11.3 | 0.00 | 0.00 | 0.00 | 51 | 1007.8 |
| 20260504190459 | 21 | 145 | 0.0 | 11.3 | 0.00 | 0.00 | 0.00 | 51 | 1007.8 |
| 20260504190258 | 21 | 207 | 4.8 | 12.9 | 0.00 | 0.00 | 0.00 | 50 | 1007.8 |
| 20260504190159 | 21 | 141 | 4.8 | 12.9 | 0.00 | 0.00 | 0.00 | 50 | 1007.8 |
| 20260504190058 | 21 | 155 | 4.8 | 14.5 | 0.00 | 0.00 | 0.00 | 54 | 1007.9 |
| 20260504185959 | 21 | 221 | 4.8 | 14.5 | 0.00 | 0.00 | 0.00 | 52 | 1007.9 |
| 20260504185759 | 21 | 202 | 1.6 | 14.5 | 0.00 | 0.00 | 0.00 | 54 | 1007.9 |
| 20260504185700 | 21 | 202 | 0.0 | 14.5 | 0.00 | 0.00 | 0.00 | 50 | 1008.0 |
| 20260504185600 | 21 | 202 | 4.8 | 14.5 | 0.00 | 0.00 | 0.00 | 49 | 1008.1 |
| 20260504185458 | 21 | 194 | 4.8 | 14.5 | 0.00 | 0.00 | 0.00 | 49 | 1008.1 |
| 20260504185358 | 21 | 229 | 3.2 | 14.5 | 0.00 | 0.00 | 0.00 | 49 | 1008.1 |
| 20260504185258 | 21 | 267 | 6.4 | 14.5 | 0.00 | 0.00 | 0.00 | 50 | 1008.2 |
| 20260504185158 | 21 | 262 | 11.3 | 14.5 | 0.00 | 0.00 | 0.00 | 51 | 1008.1 |
| 20260504185057 | 21 | 172 | 3.2 | 12.9 | 0.00 | 0.00 | 0.00 | 50 | 1008.1 |
| 20260504185000 | 21 | 175 | 3.2 | 12.9 | 0.00 | 0.00 | 0.00 | 50 | 1008.1 |
| 20260504184900 | 21 | 193 | 3.2 | 12.9 | 0.00 | 0.00 | 0.00 | 50 | 1008.1 |
| 20260504184757 | 22 | 192 | 3.2 | 12.9 | 0.00 | 0.00 | 0.00 | 49 | 1008.2 |
| 20260504184658 | 22 | 173 | 4.8 | 12.9 | 0.00 | 0.00 | 0.00 | 48 | 1008.2 |
| 20260504184357 | 22 | 213 | 3.2 | 12.9 | 0.00 | 0.00 | 0.00 | 48 | 1008.3 |
| 20260504184258 | 22 | 211 | 4.8 | 12.9 | 0.00 | 0.00 | 0.00 | 48 | 1008.3 |
| 20260504184159 | 22 | 126 | 8.0 | 12.9 | 0.00 | 0.00 | 0.00 | 51 | 1008.2 |
| 20260504184058 | 22 | 123 | 1.6 | 12.9 | 0.00 | 0.00 | 0.00 | 49 | 1008.2 |
| 20260504183859 | 22 | 198 | 11.3 | 12.9 | 0.00 | 0.00 | 0.00 | 49 | 1008.3 |
| 20260504183759 | 22 | 223 | 3.2 | 9.7 | 0.00 | 0.00 | 0.00 | 53 | 1008.3 |
| 20260504183559 | 21 | 205 | 3.2 | 9.7 | 0.00 | 0.00 | 0.00 | 51 | 1008.3 |
| 20260504183459 | 21 | 192 | 4.8 | 9.7 | 0.00 | 0.00 | 0.00 | 50 | 1008.3 |
| 20260504183359 | 21 | 212 | 3.2 | 11.3 | 0.00 | 0.00 | 0.00 | 51 | 1008.3 |
| 20260504183259 | 21 | 239 | 3.2 | 11.3 | 0.00 | 0.00 | 0.00 | 51 | 1008.4 |
| 20260504183158 | 21 | 200 | 6.4 | 11.3 | 0.00 | 0.00 | 0.00 | 48 | 1008.4 |
| 20260504183057 | 21 | 189 | 3.2 | 11.3 | 0.00 | 0.00 | 0.00 | 49 | 1008.4 |
| 20260504183000 | 21 | 188 | 6.4 | 11.3 | 0.00 | 0.00 | 0.00 | 49 | 1008.4 |
| 20260504182758 | 21 | 57 | 3.2 | 14.5 | 0.00 | 0.00 | 0.00 | 48 | 1008.4 |
| 20260504182658 | 21 | 232 | 3.2 | 14.5 | 0.00 | 0.00 | 0.00 | 49 | 1008.4 |
| 20260504182558 | 21 | 232 | 6.4 | 14.5 | 0.00 | 0.00 | 0.00 | 50 | 1008.4 |
| 20260504182505 | 21 | 181 | 6.4 | 14.5 | 0.00 | 0.00 | 0.00 | 50 | 1008.5 |
| 20260504182258 | 21 | 150 | 8.0 | 14.5 | 0.00 | 0.00 | 0.00 | 51 | 1008.6 |
| 20260504182158 | 21 | 259 | 1.6 | 14.5 | 0.00 | 0.00 | 0.00 | 52 | 1008.6 |
| 20260504181759 | 21 | 302 | 3.2 | 9.7 | 0.00 | 0.00 | 0.00 | 50 | 1008.6 |
| 20260504181659 | 21 | 161 | 3.2 | 9.7 | 0.00 | 0.00 | 0.00 | 50 | 1008.7 |
| 20260504181559 | 21 | 137 | 8.0 | 9.7 | 0.00 | 0.00 | 0.00 | 51 | 1008.7 |
| 20260504181358 | 21 | 58 | 1.6 | 9.7 | 0.00 | 0.00 | 0.00 | 52 | 1008.7 |
| 20260504181258 | 21 | 58 | 1.6 | 8.0 | 0.00 | 0.00 | 0.00 | 51 | 1008.7 |
| 20260504181159 | 21 | 300 | 3.2 | 8.0 | 0.00 | 0.00 | 0.00 | 51 | 1008.8 |
| 20260504181058 | 21 | 312 | 3.2 | 8.0 | 0.00 | 0.00 | 0.00 | 50 | 1008.8 |
| 20260504181000 | 21 | 312 | 1.6 | 11.3 | 0.00 | 0.00 | 0.00 | 50 | 1008.7 |
| 20260504180858 | 21 | 312 | 1.6 | 11.3 | 0.00 | 0.00 | 0.00 | 48 | 1008.6 |
| 20260504180759 | 21 | 315 | 4.8 | 11.3 | 0.00 | 0.00 | 0.00 | 49 | 1008.8 |
| 20260504180658 | 21 | 265 | 3.2 | 11.3 | 0.00 | 0.00 | 0.00 | 49 | 1008.9 |
| 20260504180558 | 21 | 300 | 6.4 | 11.3 | 0.00 | 0.00 | 0.00 | 50 | 1008.8 |
| 20260504180500 | 21 | 242 | 1.6 | 11.3 | 0.00 | 0.00 | 0.00 | 51 | 1008.8 |
| 20260504180358 | 21 | 178 | 3.2 | 11.3 | 0.00 | 0.00 | 0.00 | 51 | 1008.8 |
| 20260504180259 | 21 | 178 | 1.6 | 12.9 | 0.00 | 0.00 | 0.00 | 51 | 1008.9 |
| 20260504180005 | 21 | 132 | 8.0 | 12.9 | 0.00 | 0.00 | 0.00 | 49 | 1009.0 |
| 20260504175859 | 21 | 172 | 1.6 | 12.9 | 0.00 | 0.00 | 0.00 | 51 | 1009.0 |
| 20260504175759 | 21 | 161 | 6.4 | 12.9 | 0.00 | 0.00 | 0.00 | 55 | 1008.9 |
| 20260504175658 | 21 | 136 | 1.6 | 12.9 | 0.00 | 0.00 | 0.00 | 52 | 1009.0 |
| 20260504175459 | 21 | 150 | 4.8 | 17.7 | 0.00 | 0.00 | 0.00 | 48 | 1009.0 |
| 20260504175359 | 21 | 182 | 12.9 | 17.7 | 0.00 | 0.00 | 0.00 | 50 | 1009.1 |
| 20260504175159 | 21 | 190 | 0.0 | 17.7 | 0.00 | 0.00 | 0.00 | 52 | 1009.1 |
| 20260504175058 | 21 | 143 | 3.2 | 17.7 | 0.00 | 0.00 | 0.00 | 48 | 1009.2 |
| 20260504174858 | 21 | 188 | 6.4 | 17.7 | 0.00 | 0.00 | 0.00 | 51 | 1009.2 |
| 20260504174759 | 21 | 341 | 6.4 | 17.7 | 0.00 | 0.00 | 0.00 | 49 | 1009.1 |
| 20260504174658 | 21 | 164 | 6.4 | 17.7 | 0.00 | 0.00 | 0.00 | 48 | 1009.2 |
| 20260504174558 | 21 | 149 | 14.5 | 17.7 | 0.00 | 0.00 | 0.00 | 50 | 1009.2 |
| 20260504174500 | 21 | 155 | 3.2 | 17.7 | 0.00 | 0.00 | 0.00 | 49 | 1009.2 |
| 20260504174359 | 21 | 178 | 1.6 | 17.7 | 0.00 | 0.00 | 0.00 | 50 | 1009.2 |
| 20260504174257 | 21 | 195 | 3.2 | 17.7 | 0.00 | 0.00 | 0.00 | 48 | 1009.3 |
| 20260504174058 | 21 | 220 | 6.4 | 17.7 | 0.00 | 0.00 | 0.00 | 49 | 1009.3 |
| 20260504174000 | 21 | 115 | 14.5 | 14.5 | 0.00 | 0.00 | 0.00 | 51 | 1009.3 |
| 20260504173858 | 21 | 285 | 0.0 | 11.3 | 0.00 | 0.00 | 0.00 | 50 | 1009.3 |
| 20260504173758 | 21 | 298 | 4.8 | 11.3 | 0.00 | 0.00 | 0.00 | 49 | 1009.4 |
| 20260504173657 | 21 | 155 | 4.8 | 9.7 | 0.00 | 0.00 | 0.00 | 49 | 1009.3 |
| 20260504173600 | 21 | 256 | 3.2 | 9.7 | 0.00 | 0.00 | 0.00 | 51 | 1009.4 |
| 20260504173500 | 21 | 289 | 4.8 | 11.3 | 0.00 | 0.00 | 0.00 | 51 | 1009.4 |
| 20260504173258 | 21 | 193 | 4.8 | 16.1 | 0.00 | 0.00 | 0.00 | 54 | 1009.3 |
| 20260504173157 | 21 | 168 | 1.6 | 16.1 | 0.00 | 0.00 | 0.00 | 51 | 1009.3 |
| 20260504173059 | 21 | 168 | 3.2 | 16.1 | 0.00 | 0.00 | 0.00 | 50 | 1009.3 |
| 20260504172959 | 20 | 167 | 1.6 | 16.1 | 0.00 | 0.00 | 0.00 | 48 | 1009.3 |
| 20260504172858 | 21 | 172 | 9.7 | 16.1 | 0.00 | 0.00 | 0.00 | 48 | 1009.4 |
| 20260504172757 | 21 | 147 | 6.4 | 16.1 | 0.00 | 0.00 | 0.00 | 52 | 1009.4 |
| 20260504172657 | 21 | 214 | 1.6 | 16.1 | 0.00 | 0.00 | 0.00 | 48 | 1009.4 |
| 20260504172558 | 21 | 165 | 9.7 | 16.1 | 0.00 | 0.00 | 0.00 | 49 | 1009.4 |
| 20260504172358 | 21 | 178 | 3.2 | 12.9 | 0.00 | 0.00 | 0.00 | 50 | 1009.3 |
| 20260504172258 | 21 | 176 | 3.2 | 12.9 | 0.00 | 0.00 | 0.00 | 49 | 1009.4 |
| 20260504172159 | 21 | 169 | 6.4 | 12.9 | 0.00 | 0.00 | 0.00 | 49 | 1009.4 |
| 20260504172100 | 21 | 162 | 1.6 | 12.9 | 0.00 | 0.00 | 0.00 | 49 | 1009.3 |
| 20260504172000 | 21 | 235 | 1.6 | 12.9 | 0.00 | 0.00 | 0.00 | 52 | 1009.4 |
| 20260504171900 | 21 | 238 | 3.2 | 12.9 | 0.00 | 0.00 | 0.00 | 52 | 1009.5 |
| 20260504171758 | 21 | 238 | 4.8 | 14.5 | 0.00 | 0.00 | 0.00 | 51 | 1009.5 |
| 20260504171659 | 21 | 198 | 3.2 | 14.5 | 0.00 | 0.00 | 0.00 | 51 | 1009.5 |
| 20260504171559 | 21 | 222 | 3.2 | 14.5 | 0.00 | 0.00 | 0.00 | 53 | 1009.5 |
| 20260504171501 | 21 | 233 | 1.6 | 14.5 | 0.00 | 0.00 | 0.00 | 53 | 1009.4 |
| 20260504171359 | 20 | 187 | 3.2 | 14.5 | 0.00 | 0.00 | 0.00 | 50 | 1009.4 |
| 20260504171257 | 20 | 207 | 4.8 | 20.9 | 0.00 | 0.00 | 0.00 | 52 | 1009.4 |
| 20260504171201 | 20 | 262 | 1.6 | 20.9 | 0.00 | 0.00 | 0.00 | 50 | 1009.4 |
| 20260504170858 | 20 | 157 | 9.7 | 20.9 | 0.00 | 0.00 | 0.00 | 49 | 1009.6 |
| 20260504170657 | 20 | 268 | 1.6 | 20.9 | 0.00 | 0.00 | 0.00 | 49 | 1009.6 |
| 20260504170558 | 20 | 252 | 11.3 | 20.9 | 0.00 | 0.00 | 0.00 | 49 | 1009.6 |
| 20260504170500 | 20 | 144 | 6.4 | 20.9 | 0.00 | 0.00 | 0.00 | 49 | 1009.6 |
| 20260504170359 | 20 | 157 | 11.3 | 20.9 | 0.00 | 0.00 | 0.00 | 50 | 1009.7 |
| 20260504170258 | 20 | 154 | 6.4 | 11.3 | 0.00 | 0.00 | 0.00 | 48 | 1009.7 |
| 20260504160359 | 19 | 185 | 4.8 | 17.7 | 0.00 | 0.00 | 0.00 | 52 | 1010.7 |
| 20260504160258 | 19 | 249 | 4.8 | 17.7 | 0.00 | 0.00 | 0.00 | 51 | 1010.7 |
| 20260504160159 | 19 | 194 | 4.8 | 17.7 | 0.00 | 0.00 | 0.00 | 49 | 1010.7 |
| 20260504150859 | 17 | 248 | 3.2 | 9.7 | 0.00 | 0.00 | 0.00 | 58 | 1011.4 |
| 20260504150658 | 17 | 284 | 1.6 | 9.7 | 0.00 | 0.00 | 0.00 | 56 | 1011.3 |
| 20260504150558 | 17 | 284 | 1.6 | 9.7 | 0.00 | 0.00 | 0.00 | 53 | 1011.4 |
| 20260504150500 | 17 | 271 | 4.8 | 9.7 | 0.00 | 0.00 | 0.00 | 52 | 1011.4 |
| 20260504150358 | 17 | 271 | 6.4 | 9.7 | 0.00 | 0.00 | 0.00 | 53 | 1011.4 |
| 20260504150258 | 17 | 297 | 3.2 | 9.7 | 0.00 | 0.00 | 0.00 | 55 | 1011.4 |
| 20260504150159 | 17 | 162 | 3.2 | 9.7 | 0.00 | 0.00 | 0.00 | 57 | 1011.4 |
| 20260504141100 | 14 | 159 | 6.4 | 9.7 | 0.00 | 0.00 | 0.00 | 55 | 1012.0 |
| 20260504141001 | 14 | 131 | 6.4 | 9.7 | 0.00 | 0.00 | 0.00 | 56 | 1012.0 |
| 20260504140900 | 14 | 113 | 6.4 | 9.7 | 0.00 | 0.00 | 0.00 | 56 | 1012.1 |
| 20260504140658 | 14 | 222 | 3.2 | 11.3 | 0.00 | 0.00 | 0.00 | 57 | 1012.0 |
| 20260504140558 | 14 | 222 | 4.8 | 11.3 | 0.00 | 0.00 | 0.00 | 57 | 1012.0 |
| 20260504140259 | 14 | 175 | 4.8 | 11.3 | 0.00 | 0.00 | 0.00 | 55 | 1012.0 |
| 20260504140159 | 14 | 177 | 4.8 | 11.3 | 0.00 | 0.00 | 0.00 | 56 | 1012.0 |
| 20260504130800 | 12 | 173 | 1.6 | 4.8 | 0.00 | 0.00 | 0.00 | 58 | 1012.5 |
| 20260504130659 | 12 | 174 | 3.2 | 4.8 | 0.00 | 0.00 | 0.00 | 58 | 1012.4 |
| 20260504130559 | 12 | 173 | 1.6 | 4.8 | 0.00 | 0.00 | 0.00 | 60 | 1012.4 |
| 20260504130500 | 12 | 173 | 3.2 | 4.8 | 0.00 | 0.00 | 0.00 | 61 | 1012.5 |
| 20260504130357 | 12 | 174 | 0.0 | 4.8 | 0.00 | 0.00 | 0.00 | 64 | 1012.5 |
| 20260504130259 | 12 | 173 | 4.8 | 4.8 | 0.00 | 0.00 | 0.00 | 64 | 1012.4 |
| 20260504130158 | 12 | 173 | 0.0 | 4.8 | 0.00 | 0.00 | 0.00 | 66 | 1012.5 |
| 20260504120301 | 7 | 146 | 0.0 | 0.0 | 0.00 | 0.00 | 0.00 | 82 | 1012.8 |
| 20260504120158 | 7 | 146 | 0.0 | 0.0 | 0.00 | 0.00 | 0.00 | 81 | 1012.8 |
| 20260504110557 | 3 | 146 | 0.0 | 0.0 | 0.00 | 0.00 | 0.00 | 93 | 1012.6 |
| 20260504110459 | 3 | 146 | 0.0 | 0.0 | 0.00 | 0.00 | 0.00 | 93 | 1012.6 |
| 20260504110357 | 3 | 146 | 0.0 | 0.0 | 0.00 | 0.00 | 0.00 | 93 | 1012.5 |
| 20260504110257 | 3 | 146 | 0.0 | 0.0 | 0.00 | 0.00 | 0.00 | 93 | 1012.6 |
| 20260504100558 | 1 | 146 | 0.0 | 0.0 | 0.00 | 0.00 | 0.00 | 93 | 1012.9 |
| 20260504100459 | 1 | 146 | 0.0 | 0.0 | 0.00 | 0.00 | 0.00 | 93 | 1012.9 |
| 20260504100357 | 1 | 146 | 0.0 | 0.0 | 0.00 | 0.00 | 0.00 | 93 | 1012.9 |
| 20260504100158 | 1 | 146 | 0.0 | 0.0 | 0.00 | 0.00 | 0.00 | 93 | 1012.8 |
| 20260504082001 | 2 | 146 | 0.0 | 0.0 | 0.00 | 0.00 | 0.00 | 92 | 1013.0 |
| 20260504081858 | 2 | 146 | 0.0 | 0.0 | 0.00 | 0.00 | 0.00 | 91 | 1013.0 |
| 20260504081758 | 2 | 146 | 0.0 | 0.0 | 0.00 | 0.00 | 0.00 | 91 | 1013.0 |
| 20260504081659 | 2 | 146 | 0.0 | 0.0 | 0.00 | 0.00 | 0.00 | 91 | 1013.0 |
| 20260504081600 | 2 | 146 | 0.0 | 0.0 | 0.00 | 0.00 | 0.00 | 91 | 1013.0 |
| 20260504081500 | 2 | 146 | 0.0 | 0.0 | 0.00 | 0.00 | 0.00 | 91 | 1013.0 |
| 20260504081358 | 2 | 146 | 0.0 | 0.0 | 0.00 | 0.00 | 0.00 | 91 | 1013.0 |
| 20260504081258 | 2 | 146 | 0.0 | 0.0 | 0.00 | 0.00 | 0.00 | 91 | 1013.0 |
| 20260504081159 | 2 | 146 | 0.0 | 0.0 | 0.00 | 0.00 | 0.00 | 91 | 1013.0 |
| 20260504081057 | 2 | 146 | 0.0 | 0.0 | 0.00 | 0.00 | 0.00 | 91 | 1013.0 |
| 20260504080858 | 2 | 146 | 0.0 | 0.0 | 0.00 | 0.00 | 0.00 | 91 | 1013.0 |
| 20260504080758 | 2 | 146 | 0.0 | 0.0 | 0.00 | 0.00 | 0.00 | 91 | 1013.0 |
| 20260504080700 | 2 | 146 | 0.0 | 0.0 | 0.00 | 0.00 | 0.00 | 91 | 1013.0 |
| 20260504080459 | 2 | 146 | 0.0 | 0.0 | 0.00 | 0.00 | 0.00 | 91 | 1013.1 |
| 20260504080358 | 2 | 146 | 0.0 | 0.0 | 0.00 | 0.00 | 0.00 | 91 | 1013.1 |
| 20260504080158 | 2 | 146 | 0.0 | 3.2 | 0.00 | 0.00 | 0.00 | 91 | 1013.1 |
| 20260504070356 | 2 | 146 | 1.6 | 3.2 | 0.00 | 0.00 | 0.00 | 90 | 1013.0 |
| 20260504070258 | 2 | 146 | 1.6 | 3.2 | 0.00 | 0.00 | 0.00 | 90 | 1013.0 |
| 20260504070157 | 2 | 146 | 0.0 | 3.2 | 0.00 | 0.00 | 0.00 | 90 | 1013.0 |
| 20260504050658 | 4 | 146 | 0.0 | 4.8 | 0.00 | 0.00 | 0.00 | 86 | 1013.0 |
| 20260504050557 | 4 | 146 | 0.0 | 4.8 | 0.00 | 0.00 | 0.00 | 86 | 1013.0 |
| 20260504050458 | 4 | 146 | 3.2 | 4.8 | 0.00 | 0.00 | 0.00 | 86 | 1013.1 |
| 20260504050356 | 4 | 146 | 1.6 | 4.8 | 0.00 | 0.00 | 0.00 | 86 | 1013.0 |
| 20260504050257 | 4 | 146 | 3.2 | 4.8 | 0.00 | 0.00 | 0.00 | 86 | 1013.1 |
| 20260504045857 | 4 | 146 | 3.2 | 4.8 | 0.00 | 0.00 | 0.00 | 85 | 1013.0 |
| 20260504045758 | 4 | 146 | 1.6 | 4.8 | 0.00 | 0.00 | 0.00 | 85 | 1013.0 |
| 20260504045658 | 4 | 146 | 3.2 | 4.8 | 0.00 | 0.00 | 0.00 | 85 | 1013.0 |
| 20260504045556 | 4 | 146 | 0.0 | 4.8 | 0.00 | 0.00 | 0.00 | 85 | 1013.0 |
| 20260504045458 | 4 | 146 | 3.2 | 3.2 | 0.00 | 0.00 | 0.00 | 85 | 1012.9 |
| 20260504045356 | 4 | 146 | 0.0 | 3.2 | 0.00 | 0.00 | 0.00 | 85 | 1013.0 |
| 20260504045058 | 4 | 146 | 0.0 | 4.8 | 0.00 | 0.00 | 0.00 | 85 | 1013.0 |
| 20260504044958 | 4 | 146 | 1.6 | 4.8 | 0.00 | 0.00 | 0.00 | 85 | 1013.0 |
| 20260504044857 | 4 | 146 | 3.2 | 4.8 | 0.00 | 0.00 | 0.00 | 85 | 1013.0 |
| 20260504044656 | 4 | 146 | 0.0 | 4.8 | 0.00 | 0.00 | 0.00 | 85 | 1013.0 |
| 20260504044459 | 4 | 146 | 1.6 | 4.8 | 0.00 | 0.00 | 0.00 | 85 | 1013.0 |
| 20260504044356 | 4 | 146 | 1.6 | 4.8 | 0.00 | 0.00 | 0.00 | 85 | 1013.0 |
| 20260504044257 | 4 | 146 | 1.6 | 3.2 | 0.00 | 0.00 | 0.00 | 85 | 1013.0 |
| 20260504044158 | 4 | 146 | 1.6 | 3.2 | 0.00 | 0.00 | 0.00 | 85 | 1013.0 |
| 20260504044057 | 4 | 146 | 1.6 | 3.2 | 0.00 | 0.00 | 0.00 | 85 | 1013.0 |
| 20260504043958 | 4 | 146 | 1.6 | 4.8 | 0.00 | 0.00 | 0.00 | 85 | 1013.0 |
| 20260504043856 | 4 | 146 | 1.6 | 4.8 | 0.00 | 0.00 | 0.00 | 85 | 1013.0 |
| 20260504043657 | 4 | 146 | 1.6 | 4.8 | 0.00 | 0.00 | 0.00 | 85 | 1012.9 |
| 20260504043557 | 5 | 146 | 3.2 | 4.8 | 0.00 | 0.00 | 0.00 | 85 | 1013.0 |
| 20260504043459 | 5 | 146 | 1.6 | 4.8 | 0.00 | 0.00 | 0.00 | 85 | 1012.9 |
| 20260504043357 | 5 | 146 | 3.2 | 4.8 | 0.00 | 0.00 | 0.00 | 85 | 1012.9 |
| 20260504043257 | 5 | 146 | 1.6 | 4.8 | 0.00 | 0.00 | 0.00 | 85 | 1012.9 |
| 20260504043156 | 5 | 146 | 3.2 | 4.8 | 0.00 | 0.00 | 0.00 | 85 | 1012.9 |
| 20260504043055 | 5 | 146 | 3.2 | 3.2 | 0.00 | 0.00 | 0.00 | 85 | 1012.8 |
| 20260504042957 | 5 | 146 | 1.6 | 3.2 | 0.00 | 0.00 | 0.00 | 85 | 1012.9 |
| 20260504042857 | 4 | 146 | 1.6 | 4.8 | 0.00 | 0.00 | 0.00 | 84 | 1012.8 |
| 20260504042758 | 4 | 146 | 3.2 | 4.8 | 0.00 | 0.00 | 0.00 | 84 | 1012.9 |
| 20260504042657 | 4 | 146 | 1.6 | 4.8 | 0.00 | 0.00 | 0.00 | 85 | 1012.9 |
| 20260504042557 | 4 | 146 | 3.2 | 4.8 | 0.00 | 0.00 | 0.00 | 85 | 1012.8 |
| 20260504042458 | 4 | 146 | 1.6 | 4.8 | 0.00 | 0.00 | 0.00 | 85 | 1012.9 |
| 20260504042258 | 4 | 146 | 1.6 | 4.8 | 0.00 | 0.00 | 0.00 | 85 | 1012.9 |
| 20260504042157 | 4 | 146 | 3.2 | 4.8 | 0.00 | 0.00 | 0.00 | 85 | 1012.8 |
| 20260504042057 | 4 | 146 | 3.2 | 4.8 | 0.00 | 0.00 | 0.00 | 85 | 1012.8 |
| 20260504041958 | 4 | 146 | 0.0 | 4.8 | 0.00 | 0.00 | 0.00 | 85 | 1012.9 |
| 20260504041756 | 4 | 146 | 1.6 | 4.8 | 0.00 | 0.00 | 0.00 | 85 | 1012.9 |
| 20260504041657 | 4 | 146 | 3.2 | 4.8 | 0.00 | 0.00 | 0.00 | 85 | 1012.9 |
| 20260504041556 | 4 | 146 | 3.2 | 4.8 | 0.00 | 0.00 | 0.00 | 85 | 1012.9 |
| 20260504041500 | 4 | 146 | 3.2 | 4.8 | 0.00 | 0.00 | 0.00 | 85 | 1012.9 |
| 20260504041258 | 4 | 146 | 1.6 | 4.8 | 0.00 | 0.00 | 0.00 | 85 | 1012.8 |
| 20260504041157 | 4 | 146 | 1.6 | 4.8 | 0.00 | 0.00 | 0.00 | 84 | 1012.9 |
| 20260504041058 | 4 | 146 | 1.6 | 4.8 | 0.00 | 0.00 | 0.00 | 84 | 1012.9 |
| 20260504040958 | 4 | 146 | 1.6 | 4.8 | 0.00 | 0.00 | 0.00 | 84 | 1012.9 |
| 20260504040857 | 4 | 146 | 3.2 | 4.8 | 0.00 | 0.00 | 0.00 | 84 | 1012.9 |
| 20260504040756 | 4 | 146 | 3.2 | 4.8 | 0.00 | 0.00 | 0.00 | 84 | 1012.9 |
| 20260504040657 | 4 | 146 | 4.8 | 4.8 | 0.00 | 0.00 | 0.00 | 84 | 1013.0 |
| 20260504040557 | 5 | 146 | 4.8 | 4.8 | 0.00 | 0.00 | 0.00 | 84 | 1013.0 |
| 20260504040459 | 5 | 209 | 0.0 | 3.2 | 0.00 | 0.00 | 0.00 | 84 | 1012.9 |
| 20260504040359 | 5 | 209 | 0.0 | 3.2 | 0.00 | 0.00 | 0.00 | 84 | 1012.9 |
| 20260504040257 | 5 | 209 | 0.0 | 3.2 | 0.00 | 0.00 | 0.00 | 84 | 1012.9 |
| 20260504040157 | 5 | 209 | 0.0 | 3.2 | 0.00 | 0.00 | 0.00 | 84 | 1012.9 |
| 20260504040057 | 5 | 209 | 1.6 | 3.2 | 0.00 | 0.00 | 0.00 | 84 | 1012.9 |
| 20260504035900 | 5 | 209 | 1.6 | 3.2 | 0.00 | 0.00 | 0.00 | 84 | 1012.9 |
| 20260504035800 | 5 | 209 | 1.6 | 3.2 | 0.00 | 0.00 | 0.00 | 84 | 1012.9 |
| 20260504035700 | 5 | 209 | 0.0 | 3.2 | 0.00 | 0.00 | 0.00 | 83 | 1012.8 |
| 20260504035558 | 5 | 209 | 1.6 | 3.2 | 0.00 | 0.00 | 0.00 | 83 | 1012.9 |
| 20260504035400 | 5 | 209 | 1.6 | 3.2 | 0.00 | 0.00 | 0.00 | 83 | 1012.8 |
| 20260504035259 | 5 | 209 | 0.0 | 4.8 | 0.00 | 0.00 | 0.00 | 83 | 1012.8 |
| 20260504035159 | 5 | 209 | 1.6 | 4.8 | 0.00 | 0.00 | 0.00 | 83 | 1012.8 |
| 20260504035005 | 5 | 209 | 0.0 | 4.8 | 0.00 | 0.00 | 0.00 | 83 | 1012.8 |
| 20260504034900 | 5 | 209 | 0.0 | 4.8 | 0.00 | 0.00 | 0.00 | 83 | 1012.8 |
| 20260504034800 | 5 | 209 | 1.6 | 4.8 | 0.00 | 0.00 | 0.00 | 83 | 1012.8 |
| 20260504034659 | 5 | 209 | 3.2 | 4.8 | 0.00 | 0.00 | 0.00 | 82 | 1012.8 |
| 20260504034559 | 5 | 209 | 1.6 | 4.8 | 0.00 | 0.00 | 0.00 | 82 | 1012.8 |
| 20260504034501 | 5 | 209 | 0.0 | 4.8 | 0.00 | 0.00 | 0.00 | 82 | 1012.8 |
| 20260504034400 | 5 | 209 | 1.6 | 4.8 | 0.00 | 0.00 | 0.00 | 82 | 1012.8 |
| 20260504034259 | 5 | 209 | 3.2 | 3.2 | 0.00 | 0.00 | 0.00 | 82 | 1012.8 |
| 20260504034100 | 5 | 209 | 0.0 | 1.6 | 0.00 | 0.00 | 0.00 | 82 | 1012.8 |
| 20260504034000 | 5 | 209 | 0.0 | 1.6 | 0.00 | 0.00 | 0.00 | 82 | 1012.8 |
| 20260504033858 | 5 | 209 | 0.0 | 1.6 | 0.00 | 0.00 | 0.00 | 82 | 1012.7 |
| 20260504033700 | 5 | 209 | 0.0 | 1.6 | 0.00 | 0.00 | 0.00 | 82 | 1012.7 |
| 20260504033559 | 5 | 209 | 0.0 | 1.6 | 0.00 | 0.00 | 0.00 | 82 | 1012.7 |
| 20260504033504 | 5 | 209 | 0.0 | 1.6 | 0.00 | 0.00 | 0.00 | 82 | 1012.7 |
| 20260504033400 | 5 | 209 | 0.0 | 0.0 | 0.00 | 0.00 | 0.00 | 82 | 1012.7 |
| 20260504033259 | 5 | 209 | 0.0 | 0.0 | 0.00 | 0.00 | 0.00 | 81 | 1012.7 |
| 20260504033159 | 5 | 209 | 0.0 | 0.0 | 0.00 | 0.00 | 0.00 | 81 | 1012.7 |
| 20260504033059 | 5 | 209 | 0.0 | 0.0 | 0.00 | 0.00 | 0.00 | 81 | 1012.7 |
| 20260504033005 | 5 | 209 | 0.0 | 0.0 | 0.00 | 0.00 | 0.00 | 81 | 1012.7 |
| 20260504032859 | 5 | 209 | 0.0 | 0.0 | 0.00 | 0.00 | 0.00 | 81 | 1012.7 |
| 20260504032759 | 5 | 209 | 0.0 | 0.0 | 0.00 | 0.00 | 0.00 | 81 | 1012.7 |
| 20260504032659 | 5 | 209 | 0.0 | 0.0 | 0.00 | 0.00 | 0.00 | 81 | 1012.7 |
| 20260504032559 | 5 | 209 | 0.0 | 0.0 | 0.00 | 0.00 | 0.00 | 81 | 1012.7 |
| 20260504032504 | 5 | 209 | 0.0 | 1.6 | 0.00 | 0.00 | 0.00 | 81 | 1012.7 |
| 20260504032359 | 5 | 209 | 0.0 | 3.2 | 0.00 | 0.00 | 0.00 | 80 | 1012.6 |
| 20260504032258 | 5 | 209 | 0.0 | 3.2 | 0.00 | 0.00 | 0.00 | 80 | 1012.7 |
| 20260504032201 | 5 | 209 | 0.0 | 3.2 | 0.00 | 0.00 | 0.00 | 80 | 1012.6 |
| 20260504032059 | 5 | 209 | 0.0 | 3.2 | 0.00 | 0.00 | 0.00 | 80 | 1012.7 |
| 20260504032003 | 5 | 209 | 0.0 | 3.2 | 0.00 | 0.00 | 0.00 | 80 | 1012.7 |
| 20260504031900 | 5 | 209 | 0.0 | 3.2 | 0.00 | 0.00 | 0.00 | 80 | 1012.7 |
| 20260504031759 | 5 | 209 | 0.0 | 3.2 | 0.00 | 0.00 | 0.00 | 79 | 1012.7 |
| 20260504031659 | 5 | 209 | 0.0 | 3.2 | 0.00 | 0.00 | 0.00 | 79 | 1012.6 |
| 20260504031559 | 5 | 209 | 0.0 | 3.2 | 0.00 | 0.00 | 0.00 | 79 | 1012.6 |
| 20260504031500 | 5 | 209 | 1.6 | 3.2 | 0.00 | 0.00 | 0.00 | 79 | 1012.6 |
| 20260504031359 | 6 | 209 | 1.6 | 3.2 | 0.00 | 0.00 | 0.00 | 79 | 1012.6 |
| 20260504031259 | 6 | 209 | 1.6 | 3.2 | 0.00 | 0.00 | 0.00 | 79 | 1012.6 |
| 20260504031159 | 6 | 209 | 0.0 | 3.2 | 0.00 | 0.00 | 0.00 | 79 | 1012.6 |
| 20260504031059 | 6 | 209 | 0.0 | 3.2 | 0.00 | 0.00 | 0.00 | 79 | 1012.5 |
| 20260504031002 | 6 | 209 | 1.6 | 3.2 | 0.00 | 0.00 | 0.00 | 79 | 1012.6 |
| 20260504030859 | 6 | 209 | 0.0 | 3.2 | 0.00 | 0.00 | 0.00 | 78 | 1012.5 |
| 20260504030759 | 6 | 209 | 1.6 | 3.2 | 0.00 | 0.00 | 0.00 | 79 | 1012.5 |
| 20260504030659 | 6 | 209 | 0.0 | 3.2 | 0.00 | 0.00 | 0.00 | 78 | 1012.5 |
| 20260504030602 | 6 | 209 | 3.2 | 3.2 | 0.00 | 0.00 | 0.00 | 78 | 1012.5 |
| 20260504030500 | 6 | 209 | 1.6 | 3.2 | 0.00 | 0.00 | 0.00 | 78 | 1012.5 |
| 20260504030359 | 6 | 209 | 1.6 | 3.2 | 0.00 | 0.00 | 0.00 | 78 | 1012.5 |
| 20260504030259 | 6 | 209 | 1.6 | 3.2 | 0.00 | 0.00 | 0.00 | 78 | 1012.5 |
| 20260504030158 | 6 | 209 | 0.0 | 3.2 | 0.00 | 0.00 | 0.00 | 78 | 1012.5 |
| 20260504030059 | 6 | 227 | 1.6 | 3.2 | 0.00 | 0.00 | 0.00 | 78 | 1012.4 |
| 20260504030003 | 6 | 227 | 3.2 | 3.2 | 0.00 | 0.00 | 0.00 | 78 | 1012.5 |
| 20260504025859 | 6 | 227 | 1.6 | 3.2 | 0.00 | 0.00 | 0.00 | 78 | 1012.5 |
| 20260504025759 | 6 | 227 | 0.0 | 3.2 | 0.00 | 0.00 | 0.00 | 78 | 1012.5 |
| 20260504025659 | 6 | 227 | 0.0 | 3.2 | 0.00 | 0.00 | 0.00 | 78 | 1012.5 |
| 20260504025559 | 6 | 227 | 0.0 | 3.2 | 0.00 | 0.00 | 0.00 | 78 | 1012.4 |
| 20260504025400 | 6 | 227 | 0.0 | 3.2 | 0.00 | 0.00 | 0.00 | 78 | 1012.5 |
| 20260504025259 | 6 | 227 | 0.0 | 3.2 | 0.00 | 0.00 | 0.00 | 78 | 1012.5 |
| 20260504025159 | 6 | 227 | 0.0 | 3.2 | 0.00 | 0.00 | 0.00 | 78 | 1012.5 |
| 20260504025059 | 6 | 227 | 3.2 | 3.2 | 0.00 | 0.00 | 0.00 | 78 | 1012.5 |
| 20260504024900 | 6 | 227 | 3.2 | 3.2 | 0.00 | 0.00 | 0.00 | 78 | 1012.5 |
| 20260504024800 | 6 | 227 | 1.6 | 3.2 | 0.00 | 0.00 | 0.00 | 78 | 1012.5 |
| 20260504024559 | 6 | 227 | 0.0 | 0.0 | 0.00 | 0.00 | 0.00 | 77 | 1012.5 |
| 20260504024359 | 6 | 227 | 0.0 | 0.0 | 0.00 | 0.00 | 0.00 | 77 | 1012.6 |
| 20260504024259 | 6 | 227 | 0.0 | 0.0 | 0.00 | 0.00 | 0.00 | 77 | 1012.5 |
| 20260504024059 | 6 | 227 | 0.0 | 0.0 | 0.00 | 0.00 | 0.00 | 76 | 1012.5 |
| 20260504024004 | 6 | 227 | 0.0 | 0.0 | 0.00 | 0.00 | 0.00 | 76 | 1012.5 |
| 20260504023900 | 6 | 227 | 0.0 | 0.0 | 0.00 | 0.00 | 0.00 | 76 | 1012.5 |
| 20260504023759 | 6 | 227 | 0.0 | 0.0 | 0.00 | 0.00 | 0.00 | 76 | 1012.5 |
| 20260504023659 | 6 | 227 | 0.0 | 0.0 | 0.00 | 0.00 | 0.00 | 76 | 1012.5 |
| 20260504023559 | 6 | 227 | 0.0 | 0.0 | 0.00 | 0.00 | 0.00 | 76 | 1012.5 |
| 20260504023502 | 6 | 227 | 0.0 | 0.0 | 0.00 | 0.00 | 0.00 | 75 | 1012.5 |
| 20260504023400 | 6 | 227 | 0.0 | 0.0 | 0.00 | 0.00 | 0.00 | 75 | 1012.5 |
| 20260504023259 | 6 | 227 | 0.0 | 0.0 | 0.00 | 0.00 | 0.00 | 75 | 1012.5 |
| 20260504023159 | 6 | 227 | 0.0 | 3.2 | 0.00 | 0.00 | 0.00 | 75 | 1012.5 |
| 20260504023059 | 6 | 227 | 0.0 | 4.8 | 0.00 | 0.00 | 0.00 | 75 | 1012.5 |
| 20260504022859 | 6 | 227 | 0.0 | 4.8 | 0.00 | 0.00 | 0.00 | 75 | 1012.5 |
| 20260504022759 | 6 | 227 | 0.0 | 4.8 | 0.00 | 0.00 | 0.00 | 75 | 1012.5 |
| 20260504022658 | 6 | 227 | 0.0 | 4.8 | 0.00 | 0.00 | 0.00 | 75 | 1012.4 |
| 20260504022559 | 6 | 227 | 0.0 | 4.8 | 0.00 | 0.00 | 0.00 | 75 | 1012.5 |
| 20260504022504 | 6 | 227 | 0.0 | 4.8 | 0.00 | 0.00 | 0.00 | 75 | 1012.5 |
| 20260504022359 | 6 | 227 | 0.0 | 4.8 | 0.00 | 0.00 | 0.00 | 75 | 1012.5 |
| 20260504022259 | 7 | 227 | 0.0 | 4.8 | 0.00 | 0.00 | 0.00 | 75 | 1012.5 |
| 20260504022200 | 7 | 227 | 1.6 | 4.8 | 0.00 | 0.00 | 0.00 | 75 | 1012.5 |
| 20260504022004 | 7 | 227 | 3.2 | 4.8 | 0.00 | 0.00 | 0.00 | 74 | 1012.5 |
| 20260504021859 | 7 | 227 | 0.0 | 4.8 | 0.00 | 0.00 | 0.00 | 74 | 1012.5 |
| 20260504021758 | 7 | 227 | 3.2 | 4.8 | 0.00 | 0.00 | 0.00 | 73 | 1012.5 |
| 20260504021659 | 7 | 227 | 0.0 | 4.8 | 0.00 | 0.00 | 0.00 | 74 | 1012.5 |
| 20260504021600 | 7 | 227 | 3.2 | 4.8 | 0.00 | 0.00 | 0.00 | 74 | 1012.5 |
| 20260504021502 | 7 | 227 | 3.2 | 4.8 | 0.00 | 0.00 | 0.00 | 73 | 1012.5 |
| 20260504021359 | 7 | 227 | 4.8 | 4.8 | 0.00 | 0.00 | 0.00 | 74 | 1012.5 |
| 20260504021259 | 7 | 227 | 3.2 | 4.8 | 0.00 | 0.00 | 0.00 | 73 | 1012.5 |
| 20260504021200 | 7 | 227 | 3.2 | 4.8 | 0.00 | 0.00 | 0.00 | 73 | 1012.5 |
| 20260504021059 | 7 | 227 | 3.2 | 4.8 | 0.00 | 0.00 | 0.00 | 74 | 1012.5 |
| 20260504021001 | 7 | 227 | 3.2 | 4.8 | 0.00 | 0.00 | 0.00 | 74 | 1012.5 |
| 20260504020859 | 7 | 227 | 3.2 | 4.8 | 0.00 | 0.00 | 0.00 | 73 | 1012.5 |
| 20260504020759 | 7 | 227 | 1.6 | 3.2 | 0.00 | 0.00 | 0.00 | 73 | 1012.5 |
| 20260504020659 | 7 | 227 | 3.2 | 3.2 | 0.00 | 0.00 | 0.00 | 73 | 1012.5 |
| 20260504020559 | 7 | 227 | 1.6 | 3.2 | 0.00 | 0.00 | 0.00 | 73 | 1012.5 |
| 20260504020500 | 7 | 227 | 1.6 | 3.2 | 0.00 | 0.00 | 0.00 | 72 | 1012.5 |
| 20260504020359 | 7 | 227 | 1.6 | 3.2 | 0.00 | 0.00 | 0.00 | 72 | 1012.5 |
| 20260504020301 | 7 | 227 | 1.6 | 3.2 | 0.00 | 0.00 | 0.00 | 71 | 1012.5 |
| 20260504020059 | 7 | 227 | 0.0 | 3.2 | 0.00 | 0.00 | 0.00 | 71 | 1012.5 |
| 20260504015858 | 7 | 227 | 1.6 | 3.2 | 0.00 | 0.00 | 0.00 | 72 | 1012.5 |
| 20260504015659 | 7 | 227 | 0.0 | 3.2 | 0.00 | 0.00 | 0.00 | 72 | 1012.5 |
| 20260504015559 | 7 | 227 | 0.0 | 3.2 | 0.00 | 0.00 | 0.00 | 72 | 1012.5 |
| 20260504015500 | 7 | 227 | 0.0 | 3.2 | 0.00 | 0.00 | 0.00 | 72 | 1012.5 |
| 20260504015259 | 7 | 227 | 0.0 | 3.2 | 0.00 | 0.00 | 0.00 | 72 | 1012.5 |
| 20260504015159 | 7 | 227 | 0.0 | 3.2 | 0.00 | 0.00 | 0.00 | 72 | 1012.5 |
| 20260504015058 | 7 | 227 | 0.0 | 3.2 | 0.00 | 0.00 | 0.00 | 72 | 1012.5 |
| 20260504015000 | 7 | 227 | 0.0 | 3.2 | 0.00 | 0.00 | 0.00 | 72 | 1012.5 |
| 20260504014859 | 7 | 227 | 0.0 | 3.2 | 0.00 | 0.00 | 0.00 | 72 | 1012.5 |
| 20260504014758 | 7 | 227 | 1.6 | 3.2 | 0.00 | 0.00 | 0.00 | 72 | 1012.5 |
| 20260504014659 | 7 | 227 | 1.6 | 3.2 | 0.00 | 0.00 | 0.00 | 72 | 1012.4 |
| 20260504014557 | 7 | 227 | 3.2 | 3.2 | 0.00 | 0.00 | 0.00 | 71 | 1012.5 |
| 20260504014501 | 7 | 227 | 0.0 | 3.2 | 0.00 | 0.00 | 0.00 | 71 | 1012.5 |
| 20260504014358 | 7 | 227 | 0.0 | 3.2 | 0.00 | 0.00 | 0.00 | 71 | 1012.5 |
| 20260504014258 | 7 | 227 | 0.0 | 3.2 | 0.00 | 0.00 | 0.00 | 71 | 1012.5 |
| 20260504014157 | 7 | 227 | 0.0 | 3.2 | 0.00 | 0.00 | 0.00 | 71 | 1012.5 |
| 20260504014059 | 7 | 227 | 0.0 | 3.2 | 0.00 | 0.00 | 0.00 | 70 | 1012.4 |
| 20260504014001 | 7 | 227 | 1.6 | 3.2 | 0.00 | 0.00 | 0.00 | 70 | 1012.5 |
| 20260504013758 | 7 | 227 | 0.0 | 3.2 | 0.00 | 0.00 | 0.00 | 70 | 1012.3 |
| 20260504013557 | 8 | 227 | 1.6 | 3.2 | 0.00 | 0.00 | 0.00 | 70 | 1012.4 |
| 20260504013500 | 8 | 227 | 1.6 | 3.2 | 0.00 | 0.00 | 0.00 | 69 | 1012.3 |
| 20260504013358 | 8 | 227 | 3.2 | 3.2 | 0.00 | 0.00 | 0.00 | 69 | 1012.3 |
| 20260504013259 | 8 | 227 | 1.6 | 3.2 | 0.00 | 0.00 | 0.00 | 69 | 1012.3 |
| 20260504013158 | 8 | 227 | 1.6 | 3.2 | 0.00 | 0.00 | 0.00 | 69 | 1012.3 |
| 20260504013057 | 8 | 227 | 0.0 | 3.2 | 0.00 | 0.00 | 0.00 | 69 | 1012.3 |
| 20260504013000 | 8 | 227 | 0.0 | 3.2 | 0.00 | 0.00 | 0.00 | 68 | 1012.3 |
| 20260504012858 | 8 | 227 | 1.6 | 3.2 | 0.00 | 0.00 | 0.00 | 68 | 1012.3 |
| 20260504012258 | 8 | 227 | 0.0 | 3.2 | 0.00 | 0.00 | 0.00 | 67 | 1012.3 |
| 20260504012158 | 8 | 227 | 3.2 | 3.2 | 0.00 | 0.00 | 0.00 | 67 | 1012.3 |
| 20260504012058 | 8 | 227 | 1.6 | 3.2 | 0.00 | 0.00 | 0.00 | 67 | 1012.3 |
| 20260504011959 | 8 | 227 | 1.6 | 3.2 | 0.00 | 0.00 | 0.00 | 67 | 1012.3 |
| 20260504011859 | 8 | 227 | 1.6 | 3.2 | 0.00 | 0.00 | 0.00 | 66 | 1012.2 |
| 20260504011758 | 8 | 227 | 3.2 | 4.8 | 0.00 | 0.00 | 0.00 | 66 | 1012.2 |
| 20260504011559 | 8 | 227 | 1.6 | 4.8 | 0.00 | 0.00 | 0.00 | 66 | 1012.2 |
| 20260504011459 | 8 | 227 | 3.2 | 4.8 | 0.00 | 0.00 | 0.00 | 66 | 1012.2 |
| 20260504011259 | 9 | 227 | 1.6 | 4.8 | 0.00 | 0.00 | 0.00 | 65 | 1012.2 |
| 20260504011058 | 9 | 231 | 1.6 | 4.8 | 0.00 | 0.00 | 0.00 | 65 | 1012.2 |
| 20260504011000 | 9 | 231 | 3.2 | 4.8 | 0.00 | 0.00 | 0.00 | 65 | 1012.2 |
| 20260504010859 | 9 | 231 | 3.2 | 4.8 | 0.00 | 0.00 | 0.00 | 64 | 1012.2 |
| 20260504010759 | 9 | 231 | 1.6 | 4.8 | 0.00 | 0.00 | 0.00 | 64 | 1012.1 |
| 20260504010659 | 9 | 231 | 0.0 | 4.8 | 0.00 | 0.00 | 0.00 | 64 | 1012.1 |
| 20260504010559 | 9 | 231 | 1.6 | 4.8 | 0.00 | 0.00 | 0.00 | 64 | 1012.2 |
| 20260504010500 | 10 | 231 | 1.6 | 4.8 | 0.00 | 0.00 | 0.00 | 63 | 1012.1 |
| 20260504010359 | 10 | 231 | 0.0 | 4.8 | 0.00 | 0.00 | 0.00 | 63 | 1012.1 |
| 20260504010258 | 10 | 231 | 0.0 | 4.8 | 0.00 | 0.00 | 0.00 | 63 | 1012.1 |
| 20260504010159 | 10 | 231 | 3.2 | 3.2 | 0.00 | 0.00 | 0.00 | 62 | 1012.1 |
| 20260504010058 | 10 | 231 | 0.0 | 3.2 | 0.00 | 0.00 | 0.00 | 62 | 1012.1 |
| 20260504010000 | 10 | 231 | 1.6 | 3.2 | 0.00 | 0.00 | 0.00 | 62 | 1012.1 |
| 20260504005757 | 10 | 231 | 1.6 | 3.2 | 0.00 | 0.00 | 0.00 | 61 | 1012.1 |
| 20260504005659 | 10 | 231 | 3.2 | 3.2 | 0.00 | 0.00 | 0.00 | 61 | 1012.1 |
| 20260504005559 | 10 | 231 | 1.6 | 3.2 | 0.00 | 0.00 | 0.00 | 61 | 1012.1 |
| 20260504005458 | 10 | 231 | 3.2 | 3.2 | 0.00 | 0.00 | 0.00 | 61 | 1012.1 |
| 20260504005358 | 10 | 231 | 0.0 | 1.6 | 0.00 | 0.00 | 0.00 | 61 | 1012.1 |
| 20260504005258 | 10 | 231 | 0.0 | 0.0 | 0.00 | 0.00 | 0.00 | 61 | 1012.1 |
| 20260504005158 | 10 | 231 | 0.0 | 0.0 | 0.00 | 0.00 | 0.00 | 60 | 1012.1 |
| 20260504005001 | 10 | 231 | 0.0 | 1.6 | 0.00 | 0.00 | 0.00 | 59 | 1012.1 |
| 20260504004859 | 10 | 231 | 0.0 | 1.6 | 0.00 | 0.00 | 0.00 | 59 | 1012.0 |
| 20260504004758 | 11 | 231 | 0.0 | 1.6 | 0.00 | 0.00 | 0.00 | 59 | 1012.0 |
| 20260504004658 | 11 | 231 | 0.0 | 1.6 | 0.00 | 0.00 | 0.00 | 59 | 1012.0 |
| 20260504004558 | 11 | 231 | 0.0 | 1.6 | 0.00 | 0.00 | 0.00 | 59 | 1012.1 |
| 20260504004459 | 11 | 231 | 0.0 | 1.6 | 0.00 | 0.00 | 0.00 | 59 | 1012.0 |
| 20260504004257 | 11 | 231 | 0.0 | 1.6 | 0.00 | 0.00 | 0.00 | 59 | 1012.0 |
| 20260504004159 | 11 | 231 | 0.0 | 1.6 | 0.00 | 0.00 | 0.00 | 58 | 1012.0 |
| 20260504004000 | 11 | 231 | 0.0 | 1.6 | 0.00 | 0.00 | 0.00 | 58 | 1012.0 |
| 20260504003857 | 11 | 231 | 1.6 | 1.6 | 0.00 | 0.00 | 0.00 | 57 | 1012.0 |
| 20260504003759 | 11 | 231 | 0.0 | 1.6 | 0.00 | 0.00 | 0.00 | 57 | 1012.0 |
| 20260504003658 | 11 | 231 | 0.0 | 1.6 | 0.00 | 0.00 | 0.00 | 56 | 1011.9 |
| 20260504003559 | 11 | 231 | 0.0 | 1.6 | 0.00 | 0.00 | 0.00 | 56 | 1011.9 |
| 20260504003459 | 11 | 231 | 1.6 | 1.6 | 0.00 | 0.00 | 0.00 | 57 | 1012.0 |
| 20260504003359 | 11 | 231 | 0.0 | 1.6 | 0.00 | 0.00 | 0.00 | 56 | 1011.9 |
| 20260504003159 | 11 | 231 | 1.6 | 1.6 | 0.00 | 0.00 | 0.00 | 57 | 1011.9 |
| 20260504003059 | 11 | 231 | 1.6 | 1.6 | 0.00 | 0.00 | 0.00 | 57 | 1011.9 |
| 20260504003000 | 11 | 231 | 0.0 | 1.6 | 0.00 | 0.00 | 0.00 | 56 | 1011.9 |
| 20260504002858 | 11 | 231 | 0.0 | 3.2 | 0.00 | 0.00 | 0.00 | 55 | 1011.9 |
| 20260504002759 | 11 | 231 | 1.6 | 3.2 | 0.00 | 0.00 | 0.00 | 56 | 1011.9 |
| 20260504002557 | 11 | 231 | 0.0 | 3.2 | 0.00 | 0.00 | 0.00 | 56 | 1011.9 |
| 20260504002258 | 12 | 231 | 0.0 | 3.2 | 0.00 | 0.00 | 0.00 | 55 | 1011.8 |
| 20260504001959 | 12 | 231 | 1.6 | 3.2 | 0.00 | 0.00 | 0.00 | 55 | 1011.7 |
| 20260504001758 | 12 | 227 | 1.6 | 3.2 | 0.00 | 0.00 | 0.00 | 55 | 1011.8 |
| 20260504001658 | 12 | 227 | 0.0 | 6.4 | 0.00 | 0.00 | 0.00 | 54 | 1011.8 |
| 20260504001557 | 12 | 227 | 0.0 | 6.4 | 0.00 | 0.00 | 0.00 | 53 | 1011.9 |
| 20260504001359 | 12 | 227 | 0.0 | 6.4 | 0.00 | 0.00 | 0.00 | 53 | 1011.8 |
| 20260504001259 | 12 | 227 | 1.6 | 6.4 | 0.00 | 0.00 | 0.00 | 52 | 1011.8 |
| 20260504001158 | 12 | 227 | 0.0 | 6.4 | 0.00 | 0.00 | 0.00 | 53 | 1011.7 |
| 20260504001057 | 12 | 227 | 0.0 | 6.4 | 0.00 | 0.00 | 0.00 | 52 | 1011.7 |
| 20260504000858 | 12 | 227 | 1.6 | 6.4 | 0.00 | 0.00 | 0.00 | 51 | 1011.7 |
| 20260504000759 | 12 | 254 | 3.2 | 6.4 | 0.00 | 0.00 | 0.00 | 52 | 1011.7 |
| 20260504000557 | 12 | 254 | 1.6 | 6.4 | 0.00 | 0.00 | 0.00 | 52 | 1011.7 |
| 20260504000500 | 12 | 254 | 0.0 | 6.4 | 0.00 | 0.00 | 0.00 | 51 | 1011.6 |
| 20260504000258 | 13 | 254 | 0.0 | 6.4 | 0.00 | 0.00 | 0.00 | 52 | 1011.6 |
| 20260504000058 | 13 | 256 | 6.4 | 6.4 | 0.00 | 0.00 | 0.00 | 51 | 1011.5 |
| 20260504000005 | 13 | 248 | 1.6 | 6.4 | 0.00 | 0.00 | 0.00 | 49 | 1011.5 |
| 20260503235900 | 13 | 248 | 3.2 | 6.4 | 0.00 | 0.00 | 0.00 | 50 | 1011.5 |
| 20260503235801 | 13 | 248 | 3.2 | 6.4 | 0.00 | 0.00 | 0.00 | 50 | 1011.5 |
| 20260503235559 | 13 | 246 | 1.6 | 6.4 | 0.00 | 0.00 | 0.00 | 49 | 1011.4 |
| 20260503235500 | 13 | 246 | 3.2 | 6.4 | 0.00 | 0.00 | 0.00 | 50 | 1011.5 |
| 20260503235359 | 13 | 246 | 1.6 | 6.4 | 0.00 | 0.00 | 0.00 | 49 | 1011.5 |
| 20260503235300 | 13 | 246 | 3.2 | 6.4 | 0.00 | 0.00 | 0.00 | 50 | 1011.5 |
| 20260503235200 | 13 | 246 | 1.6 | 6.4 | 0.00 | 0.00 | 0.00 | 51 | 1011.5 |
| 20260503235058 | 13 | 246 | 1.6 | 6.4 | 0.00 | 0.00 | 0.00 | 49 | 1011.4 |
| 20260503234901 | 13 | 244 | 1.6 | 4.8 | 0.00 | 0.00 | 0.00 | 50 | 1011.5 |
| 20260503234600 | 13 | 244 | 1.6 | 4.8 | 0.00 | 0.00 | 0.00 | 49 | 1011.4 |
| 20260503234501 | 13 | 244 | 1.6 | 4.8 | 0.00 | 0.00 | 0.00 | 49 | 1011.5 |
| 20260503234359 | 13 | 244 | 1.6 | 4.8 | 0.00 | 0.00 | 0.00 | 48 | 1011.4 |
| 20260503234258 | 13 | 244 | 1.6 | 4.8 | 0.00 | 0.00 | 0.00 | 48 | 1011.4 |
| 20260503234159 | 13 | 244 | 0.0 | 4.8 | 0.00 | 0.00 | 0.00 | 48 | 1011.4 |
| 20260503234058 | 13 | 244 | 3.2 | 4.8 | 0.00 | 0.00 | 0.00 | 50 | 1011.4 |
| 20260503234000 | 13 | 244 | 3.2 | 4.8 | 0.00 | 0.00 | 0.00 | 49 | 1011.4 |
| 20260503233859 | 13 | 244 | 1.6 | 4.8 | 0.00 | 0.00 | 0.00 | 49 | 1011.3 |
| 20260503233800 | 13 | 244 | 1.6 | 4.8 | 0.00 | 0.00 | 0.00 | 48 | 1011.4 |
| 20260503233658 | 13 | 244 | 3.2 | 4.8 | 0.00 | 0.00 | 0.00 | 49 | 1011.4 |
| 20260503233600 | 13 | 244 | 0.0 | 4.8 | 0.00 | 0.00 | 0.00 | 47 | 1011.4 |
| 20260503233504 | 13 | 247 | 1.6 | 4.8 | 0.00 | 0.00 | 0.00 | 47 | 1011.4 |
| 20260503233401 | 13 | 247 | 3.2 | 11.3 | 0.00 | 0.00 | 0.00 | 48 | 1011.4 |
| 20260503233259 | 13 | 247 | 3.2 | 11.3 | 0.00 | 0.00 | 0.00 | 48 | 1011.4 |
| 20260503233200 | 13 | 247 | 0.0 | 11.3 | 0.00 | 0.00 | 0.00 | 49 | 1011.4 |
| 20260503233101 | 13 | 247 | 0.0 | 11.3 | 0.00 | 0.00 | 0.00 | 49 | 1011.3 |
| 20260503233001 | 13 | 247 | 0.0 | 11.3 | 0.00 | 0.00 | 0.00 | 48 | 1011.4 |
| 20260503232800 | 13 | 247 | 1.6 | 11.3 | 0.00 | 0.00 | 0.00 | 48 | 1011.4 |
| 20260503232700 | 13 | 247 | 3.2 | 11.3 | 0.00 | 0.00 | 0.00 | 48 | 1011.4 |
| 20260503232600 | 14 | 247 | 4.8 | 11.3 | 0.00 | 0.00 | 0.00 | 47 | 1011.4 |
| 20260503232503 | 14 | 247 | 4.8 | 11.3 | 0.00 | 0.00 | 0.00 | 47 | 1011.3 |
| 20260503232400 | 14 | 247 | 1.6 | 6.4 | 0.00 | 0.00 | 0.00 | 46 | 1011.3 |
| 20260503232301 | 14 | 247 | 1.6 | 11.3 | 0.00 | 0.00 | 0.00 | 46 | 1011.3 |
| 20260503232159 | 14 | 252 | 4.8 | 11.3 | 0.00 | 0.00 | 0.00 | 47 | 1011.3 |
| 20260503232059 | 14 | 252 | 1.6 | 11.3 | 0.00 | 0.00 | 0.00 | 47 | 1011.3 |
| 20260503232004 | 14 | 252 | 1.6 | 11.3 | 0.00 | 0.00 | 0.00 | 47 | 1011.2 |
| 20260503231859 | 14 | 252 | 1.6 | 11.3 | 0.00 | 0.00 | 0.00 | 46 | 1011.2 |
| 20260503231759 | 14 | 252 | 4.8 | 11.3 | 0.00 | 0.00 | 0.00 | 47 | 1011.2 |
| 20260503231559 | 14 | 248 | 3.2 | 11.3 | 0.00 | 0.00 | 0.00 | 47 | 1011.2 |
| 20260503231500 | 14 | 232 | 6.4 | 11.3 | 0.00 | 0.00 | 0.00 | 46 | 1011.2 |
| 20260503231401 | 14 | 246 | 4.8 | 11.3 | 0.00 | 0.00 | 0.00 | 47 | 1011.2 |
| 20260503231259 | 14 | 250 | 1.6 | 11.3 | 0.00 | 0.00 | 0.00 | 47 | 1011.2 |
| 20260503231202 | 14 | 250 | 3.2 | 11.3 | 0.00 | 0.00 | 0.00 | 46 | 1011.2 |
| 20260503231059 | 14 | 250 | 3.2 | 11.3 | 0.00 | 0.00 | 0.00 | 46 | 1011.2 |
| 20260503231001 | 14 | 257 | 4.8 | 11.3 | 0.00 | 0.00 | 0.00 | 47 | 1011.2 |
| 20260503230859 | 14 | 258 | 4.8 | 11.3 | 0.00 | 0.00 | 0.00 | 46 | 1011.2 |
| 20260503230759 | 14 | 263 | 9.7 | 9.7 | 0.00 | 0.00 | 0.00 | 47 | 1011.2 |
| 20260503230659 | 14 | 265 | 3.2 | 11.3 | 0.00 | 0.00 | 0.00 | 48 | 1011.2 |
| 20260503230501 | 14 | 265 | 4.8 | 11.3 | 0.00 | 0.00 | 0.00 | 47 | 1011.2 |
| 20260503230400 | 14 | 262 | 4.8 | 11.3 | 0.00 | 0.00 | 0.00 | 46 | 1011.2 |
| 20260503230259 | 14 | 262 | 3.2 | 11.3 | 0.00 | 0.00 | 0.00 | 46 | 1011.2 |
| 20260503230059 | 14 | 262 | 1.6 | 11.3 | 0.00 | 0.00 | 0.00 | 46 | 1011.2 |
| 20260503230005 | 15 | 262 | 1.6 | 11.3 | 0.00 | 0.00 | 0.00 | 46 | 1011.2 |
| 20260503225859 | 15 | 262 | 4.8 | 11.3 | 0.00 | 0.00 | 0.00 | 45 | 1011.2 |
| 20260503225759 | 15 | 262 | 11.3 | 11.3 | 0.00 | 0.00 | 0.00 | 45 | 1011.2 |
| 20260503225659 | 15 | 269 | 11.3 | 11.3 | 0.00 | 0.00 | 0.00 | 46 | 1011.2 |
| 20260503225559 | 15 | 235 | 3.2 | 8.0 | 0.00 | 0.00 | 0.00 | 46 | 1011.2 |
| 20260503225505 | 15 | 235 | 3.2 | 8.0 | 0.00 | 0.00 | 0.00 | 46 | 1011.2 |
| 20260503225400 | 15 | 194 | 3.2 | 4.8 | 0.00 | 0.00 | 0.00 | 49 | 1011.2 |
| 20260503225159 | 15 | 194 | 1.6 | 4.8 | 0.00 | 0.00 | 0.00 | 48 | 1011.2 |
| 20260503225004 | 15 | 194 | 0.0 | 4.8 | 0.00 | 0.00 | 0.00 | 48 | 1011.2 |
| 20260503224858 | 15 | 194 | 1.6 | 11.3 | 0.00 | 0.00 | 0.00 | 47 | 1011.2 |
| 20260503224758 | 15 | 194 | 1.6 | 11.3 | 0.00 | 0.00 | 0.00 | 48 | 1011.2 |
| 20260503224659 | 15 | 194 | 1.6 | 11.3 | 0.00 | 0.00 | 0.00 | 47 | 1011.2 |
| 20260503224559 | 15 | 194 | 1.6 | 11.3 | 0.00 | 0.00 | 0.00 | 46 | 1011.2 |
| 20260503224459 | 15 | 194 | 1.6 | 11.3 | 0.00 | 0.00 | 0.00 | 45 | 1011.2 |
| 20260503224259 | 15 | 193 | 3.2 | 11.3 | 0.00 | 0.00 | 0.00 | 46 | 1011.2 |
| 20260503224158 | 15 | 192 | 1.6 | 11.3 | 0.00 | 0.00 | 0.00 | 46 | 1011.3 |
| 20260503224059 | 15 | 192 | 3.2 | 11.3 | 0.00 | 0.00 | 0.00 | 45 | 1011.2 |
| 20260503224002 | 15 | 249 | 8.0 | 11.3 | 0.00 | 0.00 | 0.00 | 46 | 1011.2 |
| 20260503223901 | 15 | 245 | 4.8 | 8.0 | 0.00 | 0.00 | 0.00 | 44 | 1011.2 |
| 20260503223759 | 15 | 245 | 1.6 | 8.0 | 0.00 | 0.00 | 0.00 | 46 | 1011.2 |
| 20260503223659 | 15 | 244 | 1.6 | 11.3 | 0.00 | 0.00 | 0.00 | 46 | 1011.2 |
| 20260503223501 | 15 | 259 | 4.8 | 11.3 | 0.00 | 0.00 | 0.00 | 44 | 1011.2 |
| 20260503223300 | 15 | 255 | 3.2 | 11.3 | 0.00 | 0.00 | 0.00 | 44 | 1011.2 |
| 20260503223159 | 15 | 255 | 3.2 | 11.3 | 0.00 | 0.00 | 0.00 | 45 | 1011.2 |
| 20260503223001 | 15 | 284 | 4.8 | 11.3 | 0.00 | 0.00 | 0.00 | 44 | 1011.2 |
| 20260503222900 | 15 | 252 | 1.6 | 11.3 | 0.00 | 0.00 | 0.00 | 44 | 1011.2 |
| 20260503222659 | 15 | 254 | 1.6 | 8.0 | 0.00 | 0.00 | 0.00 | 45 | 1011.3 |
| 20260503222559 | 15 | 254 | 4.8 | 8.0 | 0.00 | 0.00 | 0.00 | 45 | 1011.2 |
| 20260503222359 | 15 | 254 | 3.2 | 8.0 | 0.00 | 0.00 | 0.00 | 46 | 1011.2 |
| 20260503222259 | 15 | 269 | 3.2 | 8.0 | 0.00 | 0.00 | 0.00 | 47 | 1011.2 |
| 20260503222200 | 15 | 256 | 4.8 | 8.0 | 0.00 | 0.00 | 0.00 | 46 | 1011.2 |
| 20260503222101 | 15 | 242 | 6.4 | 9.7 | 0.00 | 0.00 | 0.00 | 46 | 1011.1 |
| 20260503222000 | 15 | 252 | 4.8 | 9.7 | 0.00 | 0.00 | 0.00 | 46 | 1011.2 |
| 20260503221859 | 15 | 255 | 3.2 | 9.7 | 0.00 | 0.00 | 0.00 | 45 | 1011.2 |
| 20260503221759 | 15 | 256 | 3.2 | 9.7 | 0.00 | 0.00 | 0.00 | 45 | 1011.2 |
| 20260503221701 | 15 | 255 | 4.8 | 9.7 | 0.00 | 0.00 | 0.00 | 46 | 1011.2 |
| 20260503221559 | 15 | 254 | 1.6 | 9.7 | 0.00 | 0.00 | 0.00 | 46 | 1011.2 |
| 20260503221500 | 15 | 254 | 3.2 | 9.7 | 0.00 | 0.00 | 0.00 | 45 | 1011.1 |
| 20260503221359 | 15 | 255 | 3.2 | 9.7 | 0.00 | 0.00 | 0.00 | 48 | 1011.1 |
| 20260503221300 | 15 | 230 | 8.0 | 8.0 | 0.00 | 0.00 | 0.00 | 46 | 1011.1 |
| 20260503221200 | 15 | 236 | 6.4 | 6.4 | 0.00 | 0.00 | 0.00 | 47 | 1011.2 |
| 20260503221058 | 15 | 205 | 4.8 | 6.4 | 0.00 | 0.00 | 0.00 | 49 | 1011.2 |
| 20260503221001 | 15 | 205 | 3.2 | 6.4 | 0.00 | 0.00 | 0.00 | 48 | 1011.3 |
| 20260503220900 | 15 | 205 | 4.8 | 8.0 | 0.00 | 0.00 | 0.00 | 46 | 1011.3 |
| 20260503220759 | 15 | 205 | 1.6 | 8.0 | 0.00 | 0.00 | 0.00 | 46 | 1011.3 |
| 20260503220700 | 15 | 205 | 1.6 | 8.0 | 0.00 | 0.00 | 0.00 | 46 | 1011.3 |
| 20260503220559 | 15 | 205 | 3.2 | 8.0 | 0.00 | 0.00 | 0.00 | 45 | 1011.2 |
| 20260503220500 | 15 | 205 | 3.2 | 8.0 | 0.00 | 0.00 | 0.00 | 46 | 1011.3 |
| 20260503220400 | 15 | 231 | 4.8 | 8.0 | 0.00 | 0.00 | 0.00 | 46 | 1011.3 |
| 20260503220159 | 15 | 231 | 3.2 | 8.0 | 0.00 | 0.00 | 0.00 | 46 | 1011.3 |
| 20260503220059 | 15 | 229 | 4.8 | 8.0 | 0.00 | 0.00 | 0.00 | 45 | 1011.3 |
| 20260503220001 | 15 | 232 | 6.4 | 8.0 | 0.00 | 0.00 | 0.00 | 46 | 1011.3 |
| 20260503215859 | 15 | 258 | 4.8 | 9.7 | 0.00 | 0.00 | 0.00 | 45 | 1011.3 |
| 20260503215759 | 15 | 262 | 1.6 | 12.9 | 0.00 | 0.00 | 0.00 | 45 | 1011.3 |
| 20260503215700 | 15 | 255 | 6.4 | 12.9 | 0.00 | 0.00 | 0.00 | 46 | 1011.3 |
| 20260503215559 | 15 | 213 | 3.2 | 12.9 | 0.00 | 0.00 | 0.00 | 46 | 1011.3 |
| 20260503215504 | 15 | 212 | 3.2 | 12.9 | 0.00 | 0.00 | 0.00 | 47 | 1011.3 |
| 20260503215359 | 15 | 212 | 3.2 | 12.9 | 0.00 | 0.00 | 0.00 | 46 | 1011.3 |
| 20260503215259 | 15 | 293 | 0.0 | 12.9 | 0.00 | 0.00 | 0.00 | 47 | 1011.3 |
| 20260503215159 | 15 | 319 | 6.4 | 12.9 | 0.00 | 0.00 | 0.00 | 46 | 1011.3 |
| 20260503215100 | 15 | 273 | 4.8 | 12.9 | 0.00 | 0.00 | 0.00 | 45 | 1011.3 |
| 20260503214859 | 15 | 257 | 4.8 | 12.9 | 0.00 | 0.00 | 0.00 | 45 | 1011.3 |
| 20260503214759 | 15 | 262 | 11.3 | 12.9 | 0.00 | 0.00 | 0.00 | 46 | 1011.2 |
| 20260503214658 | 15 | 252 | 1.6 | 12.9 | 0.00 | 0.00 | 0.00 | 45 | 1011.3 |
| 20260503214258 | 15 | 236 | 4.8 | 12.9 | 0.00 | 0.00 | 0.00 | 46 | 1011.3 |
| 20260503214058 | 15 | 302 | 3.2 | 6.4 | 0.00 | 0.00 | 0.00 | 48 | 1011.2 |
| 20260503214001 | 15 | 255 | 1.6 | 6.4 | 0.00 | 0.00 | 0.00 | 45 | 1011.1 |
| 20260503213859 | 15 | 319 | 3.2 | 6.4 | 0.00 | 0.00 | 0.00 | 46 | 1011.1 |
| 20260503213700 | 15 | 234 | 3.2 | 6.4 | 0.00 | 0.00 | 0.00 | 46 | 1011.1 |
| 20260503213600 | 15 | 234 | 3.2 | 6.4 | 0.00 | 0.00 | 0.00 | 47 | 1011.1 |
| 20260503213501 | 15 | 234 | 3.2 | 8.0 | 0.00 | 0.00 | 0.00 | 47 | 1011.2 |
| 20260503213400 | 15 | 234 | 3.2 | 8.0 | 0.00 | 0.00 | 0.00 | 48 | 1011.2 |
| 20260503213300 | 15 | 234 | 1.6 | 8.0 | 0.00 | 0.00 | 0.00 | 46 | 1011.1 |
| 20260503213200 | 15 | 230 | 1.6 | 8.0 | 0.00 | 0.00 | 0.00 | 46 | 1011.1 |
| 20260503213059 | 15 | 230 | 3.2 | 8.0 | 0.00 | 0.00 | 0.00 | 45 | 1011.2 |
| 20260503213000 | 15 | 230 | 3.2 | 8.0 | 0.00 | 0.00 | 0.00 | 45 | 1011.2 |
| 20260503212900 | 15 | 230 | 3.2 | 8.0 | 0.00 | 0.00 | 0.00 | 45 | 1011.2 |
| 20260503212758 | 15 | 273 | 4.8 | 8.0 | 0.00 | 0.00 | 0.00 | 46 | 1011.2 |
| 20260503212701 | 15 | 261 | 4.8 | 9.7 | 0.00 | 0.00 | 0.00 | 43 | 1011.2 |
| 20260503212559 | 15 | 236 | 8.0 | 9.7 | 0.00 | 0.00 | 0.00 | 45 | 1011.1 |
| 20260503212501 | 15 | 340 | 1.6 | 9.7 | 0.00 | 0.00 | 0.00 | 46 | 1011.1 |
| 20260503212159 | 15 | 76 | 0.0 | 9.7 | 0.00 | 0.00 | 0.00 | 45 | 1011.1 |
| 20260503212059 | 15 | 80 | 1.6 | 12.9 | 0.00 | 0.00 | 0.00 | 44 | 1011.2 |
| 20260503212000 | 15 | 269 | 0.0 | 12.9 | 0.00 | 0.00 | 0.00 | 45 | 1011.2 |
| 20260503211858 | 15 | 269 | 1.6 | 12.9 | 0.00 | 0.00 | 0.00 | 46 | 1011.2 |
| 20260503211700 | 15 | 298 | 4.8 | 12.9 | 0.00 | 0.00 | 0.00 | 45 | 1011.2 |
| 20260503211300 | 15 | 248 | 1.6 | 12.9 | 0.00 | 0.00 | 0.00 | 44 | 1011.2 |
| 20260503211159 | 15 | 289 | 6.4 | 12.9 | 0.00 | 0.00 | 0.00 | 45 | 1011.2 |
| 20260503211100 | 15 | 219 | 3.2 | 11.3 | 0.00 | 0.00 | 0.00 | 45 | 1011.1 |
| 20260503211000 | 15 | 244 | 4.8 | 11.3 | 0.00 | 0.00 | 0.00 | 46 | 1011.1 |
| 20260503210800 | 15 | 265 | 3.2 | 11.3 | 0.00 | 0.00 | 0.00 | 46 | 1011.1 |
| 20260503210659 | 15 | 240 | 3.2 | 11.3 | 0.00 | 0.00 | 0.00 | 48 | 1011.1 |
| 20260503210600 | 15 | 261 | 3.2 | 11.3 | 0.00 | 0.00 | 0.00 | 46 | 1011.1 |
| 20260503210506 | 15 | 262 | 1.6 | 11.3 | 0.00 | 0.00 | 0.00 | 47 | 1011.1 |
| 20260503210358 | 15 | 262 | 3.2 | 11.3 | 0.00 | 0.00 | 0.00 | 47 | 1011.2 |
| 20260503210259 | 15 | 250 | 4.8 | 11.3 | 0.00 | 0.00 | 0.00 | 46 | 1011.2 |
| 20260503210200 | 15 | 250 | 3.2 | 11.3 | 0.00 | 0.00 | 0.00 | 45 | 1011.2 |
| 20260503210006 | 15 | 277 | 3.2 | 17.7 | 0.00 | 0.00 | 0.00 | 45 | 1011.3 |
| 20260503205900 | 15 | 260 | 9.7 | 17.7 | 0.00 | 0.00 | 0.00 | 46 | 1011.3 |
| 20260503205800 | 15 | 265 | 4.8 | 17.7 | 0.00 | 0.00 | 0.00 | 46 | 1011.3 |
| 20260503205559 | 15 | 269 | 4.8 | 17.7 | 0.00 | 0.00 | 0.00 | 46 | 1011.3 |
| 20260503205503 | 15 | 267 | 1.6 | 17.7 | 0.00 | 0.00 | 0.00 | 46 | 1011.3 |
| 20260503205359 | 15 | 279 | 3.2 | 17.7 | 0.00 | 0.00 | 0.00 | 46 | 1011.3 |
| 20260503205259 | 15 | 246 | 3.2 | 17.7 | 0.00 | 0.00 | 0.00 | 45 | 1011.3 |
| 20260503205158 | 15 | 259 | 11.3 | 17.7 | 0.00 | 0.00 | 0.00 | 45 | 1011.2 |
| 20260503205100 | 15 | 223 | 8.0 | 17.7 | 0.00 | 0.00 | 0.00 | 45 | 1011.3 |
| 20260503205001 | 15 | 203 | 3.2 | 12.9 | 0.00 | 0.00 | 0.00 | 47 | 1011.2 |